Change the Weather History Date:

Monday, July 29, 2013

  Actual Average Record
Temperature  
Mean Temperature 70 °F 74 °F  
Max Temperature 81 °F 90 °F 106 °F (1980)
Min Temperature 58 °F 59 °F 47 °F (2009)
Degree Days  
Heating Degree Days 0 0  
Month to date heating degree days 2 1  
Since 1 June heating degree days 23 61  
Since 1 July heating degree days 2 1  
Cooling Degree Days 5 10  
Month to date cooling degree days 298 270  
Year to date cooling degree days 547 419  
Since 1 June cooling degree days 493 396  
Growing Degree Days 20 (Base 50)    
Moisture  
Dew Point 60 °F    
Average Humidity 71    
Maximum Humidity 93    
Minimum Humidity 48    
Precipitation  
Precipitation 0.03 in 0.05 in 1.14 in (1957)
Month to date precipitation 0.78 1.72  
Year to date precipitation 6.96 10.89  
Snow  
Snow 0.00 in 0.00 in - ()
Month to date snowfall 0.0 0.0  
Since 1 July snowfall 0.0 0.0  
Snow Depth 0.00 in    
Sea Level Pressure  
Sea Level Pressure 29.96 in    
Wind  
Wind Speed 5 mph (East)    
Max Wind Speed 16 mph    
Max Gust Speed 21 mph    
Visibility 9 miles    
Events Rain , Thunderstorm    
T = Trace of Precipitation, MM = Missing Value Source: NWS Daily Summary

Daily Weather History Graph

Daily Weather History Graph

Search for Another Location

Airport or City:

Trip Planner

Search our weather history database for the weather conditions in past years. The results will help you decide how hot, cold, wet, or windy it might be!

Date:

Astronomy

Jul. 29, 2013 Rise Set
Actual Time 5:45 AM MDT 8:15 PM MDT
Civil Twilight 5:13 AM MDT 8:47 PM MDT
Nautical Twilight 4:34 AM MDT 9:26 PM MDT
Astronomical Twilight 3:49 AM MDT 10:10 PM MDT
Moon No Moon Rise 1:38 PM MDT (7/29)
Length of Visible Light 15h 33m
Length of Day
14h 30m
Waning Gibbous, 50% of the Moon is Illuminated
Jul 29
Waning Gibbous
Aug 6
New
Aug 14
First Quarter
Aug 20
Full
Aug 28
Last Quarter

Hourly Weather History & Observations

Time (MDT) Temp. Dew Point Humidity Pressure Visibility Wind Dir Wind Speed Gust Speed Precip Events Conditions
12:53 AM 63.0 °F 57.0 °F 81% 29.89 in 10.0 mi East 8.1 mph 19.6 mph N/A   Overcast
1:06 AM 62.6 °F 57.2 °F 82% 30.02 in 10.0 mi East 9.2 mph - N/A   Overcast
1:53 AM 62.1 °F 57.0 °F 84% 29.91 in 10.0 mi ENE 11.5 mph - N/A   Overcast
2:27 AM 60.8 °F 57.2 °F 88% 30.03 in 4.0 mi East 8.1 mph - N/A   Overcast
2:35 AM 60.8 °F 57.2 °F 88% 30.03 in 4.0 mi ENE 8.1 mph - N/A Thunderstorm Overcast
2:53 AM 60.1 °F 57.9 °F 93% 29.92 in 3.0 mi NE 10.4 mph - 0.00 in Rain , Thunderstorm Light Thunderstorms and Rain
3:02 AM 60.8 °F 59.0 °F 94% 30.02 in 2.5 mi East 12.7 mph - 0.02 in Rain , Thunderstorm Thunderstorms and Rain
3:11 AM 60.8 °F 57.2 °F 88% 30.01 in 4.0 mi East 13.8 mph - 0.03 in Rain Light Rain
3:31 AM 59.0 °F 57.2 °F 94% 29.99 in 10.0 mi ESE 15.0 mph - 0.03 in   Overcast
3:53 AM 59.0 °F 57.9 °F 96% 29.87 in 10.0 mi SE 11.5 mph - 0.03 in   Partly Cloudy
4:20 AM 59.0 °F 57.2 °F 94% 29.98 in 10.0 mi SSE 12.7 mph - N/A   Partly Cloudy
4:38 AM 59.0 °F 57.2 °F 94% 29.97 in 10.0 mi SSE 12.7 mph - N/A   Mostly Cloudy
4:53 AM 59.0 °F 57.0 °F 93% 29.87 in 10.0 mi SSE 12.7 mph - N/A   Overcast
5:53 AM 59.0 °F 57.9 °F 96% 29.85 in 10.0 mi North - - N/A   Overcast
6:15 AM 60.8 °F 57.2 °F 88% 29.96 in 10.0 mi North - - N/A   Overcast
6:53 AM 60.1 °F - N/A% 29.86 in 10.0 mi SSE 5.8 mph - N/A   Scattered Clouds
7:22 AM 62.6 °F 59.0 °F 88% 29.97 in 10.0 mi SE 3.5 mph - N/A   Mostly Cloudy
7:50 AM 64.4 °F 60.8 °F 88% 29.99 in 10.0 mi Calm Calm - N/A   Scattered Clouds
7:53 AM 64.9 °F 60.1 °F 84% 29.89 in 10.0 mi ENE 3.5 mph - N/A   Partly Cloudy
8:16 AM 66.2 °F 60.8 °F 83% 30.00 in 10.0 mi ENE 3.5 mph - N/A   Mostly Cloudy
8:51 AM 66.2 °F 60.8 °F 83% 30.01 in 10.0 mi East 4.6 mph - N/A   Overcast
8:53 AM 66.0 °F 61.0 °F 84% 29.91 in 10.0 mi East 4.6 mph - N/A   Overcast
9:11 AM 66.2 °F 60.8 °F 83% 30.01 in 10.0 mi East 4.6 mph - N/A   Overcast
9:31 AM 66.2 °F 60.8 °F 83% 30.01 in 10.0 mi ENE 5.8 mph - N/A   Overcast
9:53 AM 66.9 °F 61.0 °F 81% 29.91 in 10.0 mi East 3.5 mph - N/A   Overcast
10:50 AM 69.8 °F 60.8 °F 73% 30.03 in 10.0 mi NE 9.2 mph - N/A   Overcast
10:53 AM 69.1 °F 61.0 °F 75% 29.92 in 10.0 mi ENE 10.4 mph - N/A   Overcast
11:09 AM 68.0 °F 60.8 °F 78% 30.03 in 10.0 mi East 9.2 mph - N/A   Overcast
11:43 AM 69.8 °F 60.8 °F 73% 30.03 in 10.0 mi ENE 8.1 mph - N/A   Overcast
11:53 AM 70.0 °F 61.0 °F 73% 29.93 in 10.0 mi NE 5.8 mph - N/A   Overcast
12:53 PM 72.0 °F 60.1 °F 66% 29.93 in 10.0 mi Calm Calm - N/A   Overcast
1:46 PM 75.2 °F 60.8 °F 61% 30.04 in 10.0 mi Calm Calm - N/A   Scattered Clouds
1:53 PM 75.9 °F 60.1 °F 58% 29.92 in 10.0 mi ENE 4.6 mph - N/A   Scattered Clouds
2:53 PM 75.0 °F 60.1 °F 60% 29.93 in 10.0 mi Variable 3.5 mph - N/A   Clear
3:53 PM 78.1 °F 57.9 °F 50% 29.93 in 10.0 mi ENE 5.8 mph - N/A   Clear
4:53 PM 77.0 °F 59.0 °F 54% 29.94 in 10.0 mi SE 3.5 mph - N/A   Clear
5:53 PM 75.9 °F 60.1 °F 58% 29.94 in 10.0 mi Calm Calm - N/A   Partly Cloudy
6:53 PM 75.9 °F 60.1 °F 58% 29.96 in 10.0 mi Calm Calm - N/A   Clear
7:53 PM 73.9 °F 61.0 °F 64% 29.94 in 10.0 mi SSE 3.5 mph - N/A   Clear
8:53 PM 70.0 °F 63.0 °F 78% 29.98 in 10.0 mi ENE 3.5 mph - N/A   Clear
9:53 PM 69.1 °F 62.1 °F 78% 30.01 in 10.0 mi Calm Calm - N/A   Clear
10:53 PM 68.0 °F 62.1 °F 81% 30.01 in 10.0 mi NNW 6.9 mph - N/A   Clear
11:53 PM 66.9 °F 61.0 °F 81% 30.03 in 10.0 mi WNW 4.6 mph - N/A   Clear